Flag for Canada Weather past 2 weeks in Ottawa, Ontario, Canada

Now
70 °F

Passing clouds.


Feels Like: 70 °F
Forecast: 51 / 72 °F
Wind: 10 mph from Northwest

Location: Ottawa Int'L. Ont.

Current Time: Jul 2, 2015 at 2:41:42 PM

Latest Report: Jul 2, 2015 at 2:00 PM


Visibility: 15 mi

Pressure: 29.91 "Hg

Humidity: 40%

Dew point: 45 °F

Location of OttawaLocation

Historic Weather in Ottawa — Graph

°F

Ottawa temperature yesterday

Maximum temperature yesterday: 72 °F (at 2:00 PM)
Minimum temperature yesterday: 59 °F (at 10:00 PM)
Average temperature yesterday: 63 °F

Past Weeks' High & Low Weather Summary

 TemperatureHumidityPressure
High82 °F (Jun 23, 2:00 PM)100% (Jun 18, 9:00 PM)30.21 "Hg (Jun 18, 9:00 PM)
Low46 °F (Jun 20, 4:00 AM)31% (Jun 26, 5:00 PM)29.52 "Hg (Jun 23, 1:00 PM)
Average65 °F73%29.91 "Hg
* Reported Jun 17 1:00 PM — Jul 2 1:00 PM, Ottawa, Weather by CustomWeather, © 2015

Note: Actual official high and low records may vary slightly from our data, if they occured in-between our weather recording intervals... More about our weather records

Advertising

Ottawa weather history for previous 24 hours

 ConditionsComfort  
Time TempWeatherWind HumidityBarometerVisibility
1:00 PM
Thu, Jul 2
70 °FPassing clouds.10 mph46%29.90 "Hg15 mi
12:00 PM68 °FPassing clouds.13 mph46%29.90 "Hg15 mi
11:00 AM66 °FPassing clouds.14 mph49%29.89 "Hg15 mi
10:00 AM63 °FPassing clouds.14 mph64%29.89 "Hg15 mi
9:00 AM61 °FPassing clouds.14 mph68%29.89 "Hg15 mi
8:00 AM55 °FPassing clouds.17 mph82%29.89 "Hg15 mi
7:00 AM54 °FPassing clouds.14 mph88%29.89 "Hg15 mi
6:00 AM50 °FPassing clouds.8 mph94%29.88 "Hg15 mi
5:00 AM50 °FPassing clouds.8 mph94%29.87 "Hg15 mi
4:00 AM52 °FPassing clouds.13 mph88%29.86 "Hg15 mi
3:00 AM54 °FPassing clouds.12 mph88%29.86 "Hg15 mi
2:00 AM55 °FPassing clouds.12 mph88%29.85 "Hg15 mi
1:00 AM57 °FPassing clouds.15 mph82%29.83 "Hg15 mi
12:00 AM57 °FPassing clouds.16 mph82%29.81 "Hg15 mi
11:00 PM
Wed, Jul 1
59 °FPassing clouds.17 mph77%29.81 "Hg15 mi
10:00 PM59 °FOvercast.14 mph82%29.80 "Hg15 mi
9:00 PM61 °FOvercast.20 mph77%29.76 "Hg15 mi
8:00 PM63 °FPartly sunny.20 mph77%29.72 "Hg15 mi
7:00 PM64 °FBroken clouds.17 mph83%29.70 "Hg15 mi
6:00 PM66 °FPartly sunny.14 mph78%29.68 "Hg15 mi
5:00 PM64 °FBroken clouds.18 mph88%29.65 "Hg15 mi
4:51 PM64 °FPartly sunny.18 mph88%29.64 "Hg15 mi
4:00 PM64 °FLight rain. Overcast.15 mph94%29.62 "Hg15 mi
3:00 PM64 °FThunderstorms. Mostly cloudy.8 mph100%29.59 "Hg10 mi
2:47 PM64 °FThunderstorms. Mostly cloudy.12 mph94%29.60 "Hg6 mi
2:00 PM72 °FPartly sunny.6 mph83%29.59 "Hg15 mi
Weather by CustomWeather, © 2015

See weather overviewHow to use our weather pages